FW1340 Weather Reports


time (UTC)temp
C
wind
direction
speed
KPH
gust
KPH
rain 1hr
cm
rain 24hr
cm
rain mn
cm
humidity
%
barometer
mb
20260906060004 17 261 0.0 0.0 0.00 0.00 0.00 65 1013.6
20260906054503 17 257 0.0 0.0 0.00 0.00 0.00 64 1013.6
20260906053002 17 269 0.0 0.0 0.00 0.00 0.00 64 1013.6
20260906051504 18 257 0.0 0.0 0.00 0.00 0.00 64 1013.8
20260906050002 18 257 0.0 0.0 0.00 0.00 0.00 61 1013.7
20260906044501 20 255 0.0 0.0 0.00 0.00 0.00 59 1013.7
20260906043102 20 268 0.0 0.0 0.00 0.00 0.00 57 1013.5
20260906041601 20 263 0.0 0.0 0.00 0.00 0.00 57 1013.3
20260906040132 21 278 0.0 0.0 0.00 0.00 0.00 57 1013.3
20260906034605 21 271 0.0 0.0 0.00 0.00 0.00 55 1013.2
20260906033059 21 267 0.0 0.0 0.00 0.00 0.00 55 1013.0
20260906031603 22 267 0.0 0.0 0.00 0.00 0.00 54 1012.8
20260906030058 22 259 0.0 0.0 0.00 0.00 0.00 51 1012.8
20260906024601 23 267 0.0 0.0 0.00 0.00 0.00 49 1012.6
20260906023057 24 227 0.0 0.0 0.00 0.00 0.00 49 1012.7
20260906021604 25 263 0.0 0.0 0.00 0.00 0.00 47 1012.7
20260906020059 25 277 0.0 0.0 0.00 0.00 0.00 43 1012.7
20260906014559 26 254 0.0 0.0 0.00 0.00 0.00 37 1012.7
20260906013055 26 286 0.0 0.0 0.00 0.00 0.00 36 1012.6
20260906011557 27 261 0.0 0.0 0.00 0.00 0.00 36 1012.7
20260906010104 28 252 0.0 0.0 0.00 0.00 0.00 36 1012.6
20260906004555 28 273 0.0 0.0 0.00 0.00 0.00 37 1012.6
20260906003052 28 298 0.0 0.0 0.00 0.00 0.00 35 1012.6
20260906001604 28 284 0.0 0.0 0.00 0.00 0.00 35 1012.5
20260906000051 28 274 0.0 0.0 0.00 0.00 0.00 35 1012.5
20260905234549 27 236 0.0 0.0 0.00 0.00 0.00 37 1012.6
20260905233052 27 298 0.0 0.0 0.00 0.00 0.00 38 1012.6
20260905231547 27 250 0.0 0.0 0.00 0.00 0.00 38 1012.7
20260905230051 28 253 0.0 0.0 0.00 0.00 0.00 39 1012.9
20260905224554 28 277 0.0 0.0 0.00 0.00 0.00 38 1013.1
20260905223046 28 245 0.0 0.0 0.00 0.00 0.00 39 1013.0
20260905221546 27 232 0.0 0.0 0.00 0.00 0.00 41 1013.2
20260905220036 27 312 0.0 0.0 0.00 0.00 0.00 42 1013.4
20260905214535 27 312 0.0 0.0 0.00 0.00 0.00 40 1013.5
20260905213035 27 355 0.0 0.0 0.00 0.00 0.00 40 1013.6
20260905211542 27 323 0.0 0.0 0.00 0.00 0.00 40 1013.7
20260905210028 27 285 0.0 0.0 0.00 0.00 0.00 40 1013.7
20260905204528 26 283 0.0 0.0 0.00 0.00 0.00 42 1013.9
20260905203027 26 313 0.0 0.0 0.00 0.00 0.00 45 1014.0
20260905201520 26 242 0.0 0.0 0.00 0.00 0.00 46 1014.1
20260905200020 26 250 0.0 0.0 0.00 0.00 0.00 47 1014.2
20260905194513 25 242 0.0 0.0 0.00 0.00 0.00 50 1014.4
20260905193008 24 328 0.0 0.0 0.00 0.00 0.00 54 1014.5
20260905191504 23 313 0.0 0.0 0.00 0.00 0.00 55 1014.7
20260905190003 23 261 0.0 0.0 0.00 0.00 0.00 56 1014.9
20260905184608 23 244 0.0 0.0 0.00 0.00 0.00 57 1014.9
20260905183055 22 222 0.0 0.0 0.00 0.00 0.00 58 1015.0
20260905181550 22 325 0.0 0.0 0.00 0.00 0.00 60 1015.0
20260905180047 21 225 0.0 0.0 0.00 0.00 0.00 62 1015.0
20260905174542 21 274 0.0 0.0 0.00 0.00 0.00 63 1014.9
20260905173039 21 227 0.0 0.0 0.00 0.00 0.00 65 1014.9
20260905171551 20 242 0.0 0.0 0.00 0.00 0.00 66 1015.0
20260905170032 19 269 0.0 0.0 0.00 0.00 0.00 69 1014.9
20260905164531 19 267 0.0 0.0 0.00 0.00 0.00 70 1014.9
20260905163026 18 331 0.0 0.0 0.00 0.00 0.00 72 1014.9
20260905161533 18 257 0.0 0.0 0.00 0.00 0.00 74 1014.8
20260905160028 17 259 0.0 0.0 0.00 0.00 0.00 75 1014.9
20260905154525 16 256 0.0 0.0 0.00 0.00 0.00 78 1014.9
20260905153011 15 360 0.0 0.0 0.00 0.00 0.00 82 1014.9
20260905151505 14 69 0.0 0.0 0.00 0.00 0.00 85 1014.9
20260905150002 12 92 0.0 0.0 0.00 0.00 0.00 90 1014.9
20260905144559 11 80 0.0 0.0 0.00 0.00 0.00 92 1014.8
20260905143054 10 76 0.0 0.0 0.00 0.00 0.00 91 1014.7
20260905141550 10 76 0.0 0.0 0.00 0.00 0.00 91 1014.6
20260905140051 10 76 0.0 0.0 0.00 0.00 0.00 90 1014.5
20260905134551 10 38 0.0 0.0 0.00 0.00 0.00 91 1014.4
20260905133046 10 80 0.0 0.0 0.00 0.00 0.00 91 1014.3
20260905131546 10 117 0.0 0.0 0.00 0.00 0.00 91 1014.3
20260905130044 10 117 0.0 0.0 0.00 0.00 0.00 90 1014.2
20260905124548 10 117 0.0 0.0 0.00 0.00 0.00 90 1014.1
20260905123041 10 117 0.0 0.0 0.00 0.00 0.00 90 1014.2
20260905121540 10 117 0.0 0.0 0.00 0.00 0.00 89 1014.2
20260905120039 10 89 0.0 0.0 0.00 0.00 0.00 89 1014.2
20260905114536 10 74 0.0 0.0 0.00 0.00 0.00 89 1014.2
20260905113036 10 74 0.0 0.0 0.00 0.00 0.00 89 1014.2
20260905111535 10 74 0.0 0.0 0.00 0.00 0.00 89 1014.3
20260905110034 10 344 0.0 0.0 0.00 0.00 0.00 89 1014.4
20260905104543 10 106 0.0 0.0 0.00 0.00 0.00 87 1014.4
20260905103033 10 103 0.0 0.0 0.00 0.00 0.00 85 1014.5
20260905101526 11 162 0.0 0.0 0.00 0.00 0.00 84 1014.4
20260905100023 11 162 0.0 0.0 0.00 0.00 0.00 86 1014.6
20260905094521 12 161 0.0 0.0 0.00 0.00 0.00 84 1014.4
20260905093018 12 186 0.0 0.0 0.00 0.00 0.00 84 1014.4
20260905091515 12 225 0.0 0.0 0.00 0.00 0.00 83 1014.4
20260905090018 12 225 0.0 0.0 0.00 0.00 0.00 83 1014.5
20260905084517 13 112 0.0 0.0 0.00 0.00 0.00 82 1014.6
20260905083012 13 112 0.0 0.0 0.00 0.00 0.00 81 1014.6
20260905081507 13 86 0.0 0.0 0.00 0.00 0.00 82 1014.6
20260905080006 13 77 0.0 0.0 0.00 0.00 0.00 82 1014.6
20260905074501 14 88 0.0 0.0 0.00 0.00 0.00 79 1014.5
20260905073100 15 253 0.0 0.0 0.00 0.00 0.00 80 1014.3
20260905071602 15 244 0.0 0.0 0.00 0.00 0.00 80 1014.1
20260905070054 15 234 0.0 0.0 0.00 0.00 0.00 79 1014.1
20260905064558 15 249 0.0 0.0 0.00 0.00 0.00 79 1014.0
20260905063052 15 232 0.0 0.0 0.00 0.00 0.00 79 1014.1
20260905061608 15 252 0.0 0.0 0.00 0.00 0.00 78 1014.1